[[{"header":{"parameterUnit":"m.s-1","parameterCategory":1,"la1":30.2991,"la2":30.254,"lo1":-89.0895,"lo2":-89.0444,"dy":0.0017,"dx":0.0017,"nx":28,"ny":28,"refTime":"2024-06-15T09:00:00:Z","depth":0,"parameterNumber":2,"parameterNumberName":"U-component_of_WINDS"},"data":[0,0,0,0,0,0,0,0,0,0,0,0,0,0,0,0,0,0,0,0,0,0,0,0,0,0,0,0,0,0,0,0,0,0,0,0,0,0,0,0,0,0,0,0,0,0,0,0,0,0,0,0,0,0,0,0,0,0,-6.6209,-6.6211,0,-6.6352,-6.6354,-6.6355,-6.6286,-6.6282,-6.6278,-6.6275,-6.6417,-6.6424,-6.6431,0,0,0,0,0,0,0,0,0,0,0,0,0,-6.5873,-6.588,-6.6209,-6.6211,-6.6213,-6.6352,-6.6354,-6.6356,-6.6286,-6.6282,-6.6277,-6.6273,-6.6415,-6.6423,-6.6432,0,0,0,0,0,0,0,0,0,0,0,0,0,-6.6018,-6.5882,-6.6209,-6.6195,-6.6195,-6.6351,-6.6354,-6.6356,-6.6287,-6.6282,-6.6276,-6.6271,-6.6412,-6.6423,-6.6433,-6.661,0,0,-6.6466,-6.6471,0,0,0,0,0,0,0,0,-6.601,-6.603,-6.6195,-6.6196,-6.6197,-6.6296,-6.6287,-6.6441,-6.6289,-6.6252,-6.6275,-6.6269,-6.6381,-6.6394,-6.6433,-6.6617,-6.6623,-6.6467,-6.6474,-6.6478,-6.6481,0,0,0,0,0,0,0,-6.6,-6.6023,-6.6266,-6.6198,-6.6199,-6.6181,-6.6195,-6.6316,-6.6346,-6.6255,-6.625,-6.6268,-6.638,-6.6422,-6.6435,-6.6625,-6.6467,-6.6477,-6.6483,-6.6487,-6.6959,-6.6965,0,0,0,0,0,0,-6.5991,-6.6016,-6.6261,-6.627,-6.6088,-6.6191,-6.6207,-6.6269,-6.6344,-6.635,-6.6273,-6.6265,-6.6407,-6.6423,-6.644,-6.665,-6.6478,-6.6488,-6.6495,-6.6953,-6.696,-6.6967,0,0,0,0,0,0,-6.5984,-6.6013,-6.6255,-6.6142,-6.6171,-6.6203,-6.6273,-6.6275,-6.6317,-6.6358,-6.6362,-6.6311,-6.6403,-6.6425,-6.6568,-6.6654,-6.6493,-6.6503,-6.6946,-6.6955,-6.6964,-6.7072,0,0,0,0,0,0,-6.5974,-6.6011,-6.6079,-6.6144,-6.6177,-6.6382,-6.6278,-6.6282,-6.6336,-6.6327,-6.6394,-6.64,-6.64,-6.6552,-6.6579,-6.6666,-6.6512,-6.6938,-6.695,-6.6961,-6.7061,-6.7083,-6.7103,0,0,0,0,0,-6.5963,-6.6104,-6.6083,-6.6113,-6.6264,-6.6387,-6.6406,-6.6405,-6.6344,-6.6412,-6.6438,-6.6398,-6.6641,-6.6568,-6.6597,-6.6688,-6.6933,-6.6947,-6.696,-6.7051,-6.7079,-6.7102,0,0,0,0,0,0,-6.6047,-6.6112,-6.609,-6.6256,-6.6317,-6.6375,-6.6461,-6.6434,-6.6512,-6.65,-6.6494,-6.651,-6.6658,-6.6688,-6.6605,-6.6863,-6.6777,-6.6798,-6.6837,-6.6863,-6.6884,-6.6872,-6.6521,0,0,0,0,0,-6.6085,-6.6181,-6.6233,-6.6374,-6.6406,-6.6429,-6.6483,-6.6476,-6.6538,-6.6563,-6.66,-6.666,-6.675,-6.6809,-6.6894,-6.7066,-6.7078,-6.7144,-6.7165,-6.7182,-6.7198,-6.7289,-6.7317,-6.7012,-6.7012,-6.7011,0,0,-6.6164,-6.6212,-6.6273,-6.6393,-6.6439,-6.6537,-6.6451,-6.6558,-6.663,-6.6579,-6.6715,-6.6745,-6.6812,-6.697,-6.7042,-6.7,-6.7286,-6.7199,-6.7213,-6.7219,-6.7306,-6.7335,-6.736,-6.7021,-6.7019,-6.7018,0,0,-6.6358,-6.6405,-6.6527,-6.6576,-6.6647,-6.6662,-6.6692,-6.6755,-6.6772,-6.691,-6.6873,-6.6959,-6.7115,-6.7163,-6.7208,-6.7423,-6.7388,-6.7451,-6.7559,-6.7648,-6.7672,-6.7693,-6.7766,-6.7793,-6.7468,-6.7468,-6.7468,0,-6.6446,-6.6594,-6.6593,-6.6704,-6.6756,-6.6717,-6.6839,-6.6886,-6.6982,-6.7018,-6.6972,-6.7165,-6.7208,-6.7375,-6.7428,-6.7467,-6.7499,-6.7441,-6.7669,-6.7691,-6.771,-6.778,-6.7808,-6.7475,-6.7474,-6.7473,-6.7473,0,-6.6698,-6.6801,-6.6891,-6.6985,-6.7048,-6.7165,-6.718,-6.7244,-6.7234,-6.7252,-6.7392,-6.7443,-6.7537,-6.7577,-6.7567,-6.7743,-6.7715,-6.767,-6.7583,-6.7746,-6.7811,-6.7838,-6.7485,-6.7482,-6.748,-6.7478,0,0,-6.6945,-6.7038,-6.7071,-6.7112,-6.719,-6.7268,-6.7383,-6.7476,-6.753,-6.7598,-6.7691,-6.7825,-6.7783,-6.7835,-6.783,-6.7909,-6.8072,-6.7853,-6.7855,-6.7889,-6.8265,-6.8296,-6.8327,-6.8051,-6.8057,-6.8061,-6.8258,0,-6.7141,-6.7341,-6.7344,-6.7527,-6.7621,-6.7586,-6.7685,-6.7742,-6.7764,-6.7846,-6.7869,-6.7963,-6.7902,-6.7933,-6.8009,-6.8036,-6.8146,-6.8022,-6.8135,-6.8139,-6.8115,-6.8362,-6.8395,-6.8579,-6.8284,-6.8289,-6.8292,0,-6.7395,-6.7472,-6.7665,-6.7728,-6.7767,-6.7856,-6.7941,-6.8021,-6.8085,-6.8095,-6.8154,-6.8138,-6.8253,-6.8167,-6.8324,-6.8239,-6.8286,-6.8307,-6.8314,-6.832,-6.8222,-6.8371,-6.8638,-6.8664,-6.8333,-6.8329,-6.8326,0,-6.7551,-6.7704,-6.7838,-6.7875,-6.7953,-6.8016,-6.8051,-6.811,-6.8166,-6.8241,-6.8276,-6.8363,-6.841,-6.8477,-6.8485,-6.8422,-6.8642,-6.8557,-6.8651,-6.865,-6.8694,-6.8691,-6.8968,-6.8733,-6.8732,-6.8732,-6.8731,0,-6.7767,-6.7885,-6.7909,-6.7991,-6.8122,-6.8125,-6.8255,-6.8285,-6.8338,-6.8424,-6.8401,-6.8482,-6.8489,-6.8573,-6.858,-6.8707,-6.8729,-6.8739,-6.8738,-6.8738,-6.8737,-6.8766,-6.8751,-6.8739,-6.8737,-6.8736,-6.8735,0,-6.7961,-6.7983,-6.8126,-6.8189,-6.8207,-6.8301,-6.8354,-6.8432,-6.8452,-6.8562,-6.8587,-6.8619,-6.8716,-6.8731,-6.8846,-6.885,-6.9001,-6.899,-6.898,-6.8976,-6.9068,-6.9058,-6.937,-6.941,-6.9153,-6.9155,-6.9157,0,-6.8096,-6.8186,-6.8259,-6.8315,-6.8354,-6.8446,-6.8503,-6.851,-6.8569,-6.865,-6.8718,-6.8813,-6.8889,-6.9046,-6.9077,-6.9164,-6.9152,-6.9256,-6.9165,-6.9162,-6.9149,-6.9142,-6.9149,-6.9272,-6.9275,-6.9277,-6.9279,0,-6.833,-6.8337,-6.842,-6.8507,-6.8576,-6.8645,-6.871,-6.8758,-6.8773,-6.8841,-6.8941,-6.9,-6.9117,-6.9211,-6.9298,-6.9332,-6.9308,-6.9308,-6.9334,-6.9332,-6.9321,-6.9325,-6.9023,-6.93,-6.9298,-6.9296,-6.9295,-6.9294,-6.8496,-6.8574,-6.8637,-6.873,-6.8781,-6.8842,-6.8918,-6.8949,-6.9032,-6.9128,-6.9128,-6.9236,-6.9298,-6.9412,-6.9453,-6.9537,-6.9503,-6.9541,-6.955,-6.9558,-6.9565,-6.9312,-6.9553,-6.9552,-6.9552,-6.9551,-6.9551,0,-6.8726,-6.8766,-6.8852,-6.8944,-6.9017,-6.8991,-6.9062,-6.9124,-6.922,-6.928,-6.9356,-6.947,-6.9561,-6.9601,-6.9691,-6.975,-6.9741,-6.9773,-6.9766,-6.9774,-6.9592,-6.9559,-6.9779,-6.9779,-6.9779,-6.9779,-6.9779,-6.9779,-6.8854,-6.8984,-6.8998,-6.9151,-6.919,-6.9296,-6.9339,-6.9395,-6.9443,-6.9571,-6.9647,-6.9674,-6.9726,-6.9819,-6.9901,-6.991,-6.9942,-6.9979,-6.9983,-6.9811,-6.9787,-6.9765,-6.9734,-6.9987,-6.9987,-7.0157,-7.0159,-7.016]},{"header":{"parameterUnit":"m.s-1","parameterCategory":1,"la1":30.2991,"la2":30.254,"lo1":-89.0895,"lo2":-89.0444,"dy":0.0017,"dx":0.0017,"nx":28,"ny":28,"refTime":"2024-06-15T09:00:00:Z","depth":0,"parameterNumber":3,"parameterNumberName":"V-component_of_WINDS"},"data":[0,0,0,0,0,0,0,0,0,0,0,0,0,0,0,0,0,0,0,0,0,0,0,0,0,0,0,0,0,0,0,0,0,0,0,0,0,0,0,0,0,0,0,0,0,0,0,0,0,0,0,0,0,0,0,0,0,0,3.3463,3.3463,0,3.3431,3.3431,3.3431,3.333,3.3328,3.3326,3.3324,3.3294,3.3295,3.3296,0,0,0,0,0,0,0,0,0,0,0,0,0,3.344,3.3441,3.3463,3.3463,3.3462,3.3431,3.3431,3.343,3.3331,3.3328,3.3325,3.3323,3.3293,3.3295,3.3296,0,0,0,0,0,0,0,0,0,0,0,0,0,3.3434,3.3441,3.3463,3.3409,3.3403,3.3431,3.3431,3.343,3.3331,3.3328,3.3325,3.3322,3.3293,3.3295,3.3296,3.3375,0,0,3.3302,3.3303,0,0,0,0,0,0,0,0,3.3434,3.3435,3.3417,3.3412,3.3407,3.3381,3.3412,3.3412,3.3332,3.3359,3.3324,3.332,3.3326,3.3325,3.3326,3.3374,3.3372,3.3302,3.3304,3.3304,3.3305,0,0,0,0,0,0,0,3.3435,3.3435,3.345,3.3417,3.3411,3.3387,3.3382,3.3411,3.3361,3.3356,3.3349,3.3346,3.3322,3.3324,3.3325,3.3372,3.3302,3.3304,3.3305,3.3306,3.3483,3.3487,0,0,0,0,0,0,3.3443,3.3436,3.3451,3.3449,3.3412,3.339,3.3385,3.3393,3.3361,3.3353,3.3349,3.3342,3.3323,3.3323,3.3323,3.3413,3.3304,3.3306,3.3307,3.348,3.3484,3.3488,0,0,0,0,0,0,3.3442,3.3445,3.3453,3.3441,3.344,3.3394,3.3404,3.3394,3.3396,3.3355,3.3346,3.3361,3.332,3.332,3.3363,3.341,3.3307,3.3309,3.3476,3.3481,3.3486,3.3593,0,0,0,0,0,0,3.3442,3.3445,3.3474,3.3442,3.3441,3.3492,3.3407,3.3396,3.3399,3.3389,3.3364,3.3356,3.3318,3.3361,3.3365,3.3411,3.331,3.3471,3.3478,3.3484,3.3585,3.3602,3.3616,0,0,0,0,0,3.3442,3.3506,3.3476,3.3478,3.3476,3.3495,3.3494,3.3448,3.3404,3.3432,3.3407,3.3357,3.3405,3.3366,3.337,3.3417,3.3468,3.3476,3.3484,3.3579,3.3599,3.3615,0,0,0,0,0,0,3.3544,3.35,3.3467,3.3522,3.3513,3.3478,3.3513,3.3471,3.3474,3.3465,3.3408,3.3403,3.3454,3.344,3.3397,3.3492,3.3428,3.3438,3.3499,3.3518,3.3533,3.3534,3.3312,0,0,0,0,0,3.3574,3.3592,3.3553,3.3606,3.3603,3.3559,3.3566,3.3531,3.352,3.3515,3.3493,3.3484,3.3497,3.3507,3.3517,3.3584,3.3577,3.3619,3.3634,3.3647,3.3655,3.3689,3.3708,3.3514,3.3514,3.3514,0,0,3.3634,3.3612,3.3627,3.3626,3.3615,3.3636,3.3557,3.3582,3.3598,3.352,3.3557,3.3541,3.3528,3.3583,3.3606,3.3573,3.3707,3.3657,3.3667,3.3668,3.37,3.3718,3.3734,3.352,3.3519,3.3518,0,0,3.3754,3.374,3.3782,3.3773,3.3757,3.3727,3.3738,3.371,3.3695,3.3733,3.3675,3.3693,3.3717,3.371,3.371,3.383,3.3785,3.3835,3.3914,3.3948,3.3964,3.3977,3.4019,3.4035,3.3844,3.3844,3.3844,0,3.3831,3.3859,3.3809,3.3839,3.384,3.3771,3.3814,3.3808,3.3796,3.3799,3.3763,3.3791,3.3778,3.383,3.386,3.3862,3.3873,3.3837,3.3965,3.3978,3.399,3.403,3.4046,3.385,3.3849,3.3849,3.3848,0,3.3955,3.3976,3.4013,3.4003,3.4009,3.4045,3.4001,3.4014,3.3979,3.3955,3.3994,3.3976,3.3981,3.3991,3.3958,3.404,3.402,3.3975,3.3909,3.4015,3.4052,3.4067,3.3859,3.3857,3.3855,3.3853,0,0,3.4136,3.4099,3.4114,3.4109,3.4087,3.4103,3.4137,3.4142,3.4153,3.4149,3.4176,3.4199,3.4158,3.4158,3.4123,3.4154,3.425,3.4106,3.4105,3.4133,3.4339,3.4372,3.439,3.4221,3.4224,3.4226,3.434,0,3.425,3.4304,3.4261,3.4324,3.4343,3.4279,3.4309,3.4299,3.4278,3.4292,3.4268,3.4285,3.423,3.4229,3.4257,3.4233,3.4291,3.4224,3.4246,3.4247,3.425,3.4409,3.4444,3.4552,3.4354,3.4357,3.4358,0,3.4388,3.4389,3.4454,3.4429,3.4436,3.4463,3.4464,3.4479,3.4468,3.445,3.4451,3.4409,3.4442,3.4379,3.4424,3.4379,3.4386,3.4376,3.4379,3.4378,3.4308,3.4412,3.4586,3.4602,3.438,3.4379,3.4377,0,3.4513,3.4532,3.4573,3.4571,3.4543,3.4564,3.4553,3.4539,3.4545,3.4546,3.455,3.4556,3.4559,3.4565,3.4527,3.4484,3.4577,3.451,3.4563,3.4564,3.4584,3.4583,3.476,3.4591,3.459,3.459,3.459,0,3.4643,3.4686,3.4628,3.4654,3.47,3.4651,3.4698,3.4681,3.4669,3.469,3.4636,3.4657,3.4605,3.4622,3.4592,3.4634,3.4636,3.4623,3.4614,3.4627,3.4629,3.463,3.4621,3.4594,3.4593,3.4593,3.4592,0,3.479,3.4753,3.4794,3.4765,3.4759,3.4794,3.4769,3.4792,3.4767,3.4795,3.4799,3.4761,3.4778,3.474,3.4752,3.4732,3.4791,3.4772,3.4795,3.4788,3.4843,3.4838,3.5026,3.5048,3.4866,3.4868,3.4869,0,3.4875,3.4905,3.488,3.489,3.4882,3.49,3.4906,3.486,3.4868,3.4859,3.4883,3.4895,3.4902,3.4933,3.4907,3.4916,3.4895,3.496,3.4896,3.4908,3.4895,3.4893,3.4896,3.4973,3.4975,3.4977,3.4979,0,3.5029,3.5009,3.5019,3.5024,3.5032,3.5034,3.5031,3.5043,3.4994,3.5007,3.5023,3.5029,3.5041,3.5054,3.5058,3.5048,3.5006,3.4999,3.5012,3.5024,3.5036,3.503,3.483,3.4995,3.4993,3.4992,3.4991,3.499,3.5146,3.5171,3.5156,3.517,3.5163,3.5163,3.5183,3.5161,3.5174,3.5179,3.5152,3.5175,3.5165,3.5164,3.5159,3.5177,3.5148,3.5166,3.517,3.5175,3.5184,3.5035,3.5178,3.5177,3.5177,3.5176,3.5176,0,3.5296,3.5285,3.5298,3.5296,3.5307,3.5266,3.5262,3.5274,3.5295,3.5288,3.5297,3.5316,3.5329,3.5305,3.5314,3.5333,3.5314,3.5337,3.5334,3.5333,3.521,3.5198,3.5352,3.5352,3.5352,3.5352,3.5352,3.5352,3.5376,3.5415,3.5395,3.5431,3.5419,3.544,3.5442,3.5441,3.5436,3.546,3.547,3.5454,3.5441,3.5449,3.5459,3.5452,3.5458,3.5487,3.5473,3.5359,3.5341,3.5325,3.5313,3.5489,3.5489,3.5594,3.5595,3.5596]}]]